[[{"header":{"parameterUnit":"m.s-1","parameterCategory":2,"la1":30.2991,"la2":30.254,"lo1":-89.0895,"lo2":-89.0444,"dy":0.0017,"dx":0.0017,"nx":28,"ny":28,"refTime":"2025-07-13T09:00:00:Z","depth":"0","parameterNumber":2,"parameterNumberName":"U-component_of_CURRENTS"},"data":[0,0,0,0,0,0,0,0,0,0,0,0,0,0,0,0,0,0,0,0,0,0,0,0,0,0,0,0,0,0,0,0,0,0,0,0,0,0,0,0,0,0,0,0,0,0,0,0,0,0,0,0,0,0,0,0,0,0,0.3974,0.3976,0,0.4153,0.4155,0.4158,0.4169,0.4166,0.4164,0.4162,0.4267,0.4271,0.4276,0,0,0,0,0,0,0,0,0,0,0,0,0,0.3757,0.376,0.3974,0.3976,0.3978,0.4153,0.4156,0.4158,0.4169,0.4166,0.4164,0.4161,0.4265,0.4271,0.4277,0,0,0,0,0,0,0,0,0,0,0,0,0,0.3886,0.3761,0.3974,0.4003,0.4008,0.4152,0.4156,0.4159,0.417,0.4166,0.4163,0.416,0.4263,0.427,0.4277,0.4387,0,0,0.4299,0.4303,0,0,0,0,0,0,0,0,0.3879,0.3894,0.3997,0.4002,0.4007,0.4134,0.4117,0.4231,0.417,0.411,0.4162,0.4158,0.4217,0.4228,0.4272,0.4392,0.4397,0.43,0.4304,0.4308,0.431,0,0,0,0,0,0,0,0.387,0.3887,0.4047,0.4,0.4006,0.4048,0.4061,0.414,0.4179,0.4115,0.4116,0.4134,0.4219,0.4265,0.4274,0.4398,0.43,0.4306,0.4311,0.4314,0.4692,0.4697,0,0,0,0,0,0,0.3843,0.3879,0.4041,0.4052,0.3932,0.4053,0.4069,0.4098,0.418,0.419,0.4137,0.4134,0.4254,0.4266,0.4278,0.4428,0.4308,0.4314,0.4318,0.4686,0.4693,0.4699,0,0,0,0,0,0,0.3838,0.3856,0.4034,0.3967,0.3992,0.406,0.4092,0.4103,0.4147,0.4197,0.4205,0.4168,0.4252,0.4268,0.4395,0.4431,0.4318,0.4324,0.468,0.4689,0.4696,0.4719,0,0,0,0,0,0,0.3831,0.3854,0.3876,0.3966,0.3995,0.4141,0.4096,0.4109,0.4162,0.416,0.4228,0.4234,0.4251,0.4385,0.4402,0.4439,0.433,0.4672,0.4684,0.4694,0.4711,0.4727,0.4741,0,0,0,0,0,0.3823,0.3891,0.3876,0.3896,0.402,0.4144,0.4166,0.4202,0.4167,0.4221,0.4278,0.4232,0.4464,0.4397,0.4416,0.4454,0.4667,0.468,0.4693,0.4704,0.4724,0.4741,0,0,0,0,0,0,0.3856,0.39,0.3886,0.3974,0.405,0.4145,0.4208,0.4214,0.4303,0.4299,0.4315,0.4332,0.4457,0.4483,0.4407,0.4607,0.4555,0.4572,0.4558,0.4577,0.4592,0.452,0.4336,0,0,0,0,0,0.3859,0.3887,0.3962,0.4033,0.4072,0.4132,0.4185,0.4212,0.4294,0.4327,0.4374,0.4444,0.4534,0.4571,0.4663,0.4775,0.4788,0.4818,0.4833,0.4845,0.481,0.4893,0.4909,0.4742,0.4742,0.4741,0,0,0.3889,0.392,0.3937,0.4035,0.4094,0.4174,0.4158,0.426,0.4313,0.433,0.4436,0.4508,0.4585,0.4713,0.4768,0.4727,0.4918,0.4861,0.4869,0.4827,0.4908,0.4923,0.4936,0.475,0.4749,0.4748,0,0,0.3964,0.3996,0.4035,0.4097,0.4183,0.4232,0.4256,0.4359,0.4393,0.4517,0.4541,0.4635,0.4773,0.4827,0.4869,0.5032,0.5006,0.5072,0.5067,0.515,0.5161,0.5171,0.5254,0.5271,0.5063,0.5063,0.5063,0,0.399,0.4045,0.4082,0.4146,0.419,0.425,0.4317,0.4392,0.452,0.4544,0.4556,0.4753,0.4817,0.4931,0.4989,0.5052,0.5097,0.4973,0.5159,0.5169,0.5179,0.5261,0.5279,0.5066,0.5065,0.5065,0.5065,0,0.4077,0.4128,0.4181,0.424,0.431,0.4397,0.4476,0.4549,0.4583,0.4628,0.4754,0.4868,0.4955,0.5016,0.5046,0.5158,0.5172,0.5171,0.5081,0.5195,0.5278,0.5296,0.5069,0.5068,0.5068,0.5067,0,0,0.4085,0.4204,0.4212,0.4231,0.4353,0.4412,0.4517,0.4604,0.4623,0.4758,0.4795,0.4973,0.4991,0.5044,0.5107,0.5174,0.5309,0.5192,0.5196,0.5219,0.5501,0.5384,0.5392,0.5334,0.5336,0.5338,0.5544,0,0.4123,0.4225,0.4278,0.4367,0.4422,0.449,0.4557,0.4638,0.4708,0.4777,0.4876,0.4963,0.5016,0.5055,0.5141,0.527,0.5352,0.5253,0.5434,0.5439,0.5274,0.5407,0.5222,0.5376,0.5562,0.5565,0.5567,0,0.4146,0.421,0.4297,0.4366,0.4391,0.4446,0.4508,0.4584,0.4693,0.4737,0.4835,0.4918,0.5065,0.5079,0.5327,0.5263,0.5377,0.5466,0.5477,0.5349,0.5353,0.5294,0.5402,0.5227,0.5594,0.5592,0.559,0,0.407,0.4195,0.4243,0.4281,0.4396,0.4414,0.4464,0.4556,0.4586,0.4709,0.4741,0.4921,0.5007,0.5187,0.5385,0.5371,0.563,0.564,0.5646,0.5641,0.5503,0.5478,0.5398,0.5794,0.5794,0.5793,0.5793,0,0.4057,0.4088,0.4201,0.423,0.4247,0.434,0.4354,0.4422,0.4503,0.4538,0.4702,0.4773,0.5034,0.5214,0.5393,0.5572,0.5654,0.5651,0.5682,0.5515,0.5491,0.5344,0.5244,0.5801,0.5799,0.5798,0.5797,0,0.3967,0.405,0.4094,0.4196,0.4212,0.4215,0.4271,0.4283,0.4373,0.4432,0.4473,0.4688,0.4924,0.5171,0.547,0.5556,0.5592,0.579,0.557,0.5567,0.5353,0.5263,0.5095,0.4961,0.5832,0.583,0.5829,0,0.3939,0.3959,0.4037,0.4039,0.408,0.4101,0.4107,0.4198,0.422,0.4381,0.4404,0.4635,0.4786,0.5163,0.5381,0.5656,0.5521,0.5599,0.5516,0.5303,0.5231,0.507,0.4959,0.5396,0.5391,0.5387,0.5384,0,0.388,0.3893,0.3932,0.3936,0.3939,0.3934,0.3961,0.3956,0.4074,0.4138,0.425,0.4383,0.4731,0.4929,0.5248,0.539,0.528,0.5518,0.537,0.4917,0.4668,0.4566,0.5308,0.5348,0.5352,0.5354,0.5356,0.5357,0.3805,0.38,0.3831,0.3813,0.3808,0.3758,0.3713,0.377,0.3785,0.3871,0.4071,0.4227,0.4551,0.4966,0.5056,0.5027,0.5036,0.4949,0.4884,0.4762,0.4508,0.5143,0.5153,0.5155,0.5157,0.5159,0.516,0,0.3702,0.3709,0.3706,0.3663,0.3589,0.3629,0.3603,0.3554,0.3546,0.3701,0.3811,0.4073,0.4275,0.4501,0.46,0.4446,0.4331,0.4313,0.4055,0.4002,0.4653,0.4502,0.4278,0.4278,0.4278,0.4278,0.4279,0.4279,0.3652,0.3612,0.3612,0.3462,0.3415,0.3289,0.3246,0.3222,0.3288,0.3343,0.3449,0.3636,0.3899,0.4084,0.3979,0.3907,0.3613,0.3468,0.3459,0.3914,0.3968,0.402,0.3855,0.3498,0.3497,0.2712,0.2705,0.27]},{"header":{"parameterUnit":"m.s-1","parameterCategory":2,"la1":30.2991,"la2":30.254,"lo1":-89.0895,"lo2":-89.0444,"dy":0.0017,"dx":0.0017,"nx":28,"ny":28,"refTime":"2025-07-13T09:00:00:Z","depth":"0","parameterNumber":3,"parameterNumberName":"V-component_of_CURRENTS"},"data":[0,0,0,0,0,0,0,0,0,0,0,0,0,0,0,0,0,0,0,0,0,0,0,0,0,0,0,0,0,0,0,0,0,0,0,0,0,0,0,0,0,0,0,0,0,0,0,0,0,0,0,0,0,0,0,0,0,0,0.0736,0.0736,0,0.0739,0.0739,0.0738,0.0655,0.0653,0.0651,0.065,0.0641,0.0643,0.0644,0,0,0,0,0,0,0,0,0,0,0,0,0,0.0762,0.0761,0.0736,0.0736,0.0737,0.0739,0.0739,0.0738,0.0655,0.0653,0.0651,0.0649,0.0641,0.0642,0.0644,0,0,0,0,0,0,0,0,0,0,0,0,0,0.0753,0.0761,0.0736,0.0698,0.0695,0.0739,0.0739,0.0738,0.0656,0.0653,0.065,0.0648,0.064,0.0642,0.0644,0.0715,0,0,0.0651,0.0652,0,0,0,0,0,0,0,0,0.0753,0.0751,0.0703,0.0701,0.0698,0.0697,0.0745,0.0731,0.0657,0.0667,0.065,0.0646,0.0663,0.0664,0.0665,0.0715,0.0714,0.0652,0.0653,0.0654,0.0655,0,0,0,0,0,0,0,0.0754,0.0751,0.0733,0.0704,0.0701,0.0717,0.0711,0.0742,0.0678,0.0666,0.0661,0.0668,0.0661,0.0663,0.0664,0.0714,0.0652,0.0654,0.0655,0.0656,0.0832,0.0836,0,0,0,0,0,0,0.0759,0.0751,0.0733,0.0734,0.0723,0.0719,0.0712,0.0697,0.0677,0.0673,0.067,0.0664,0.0661,0.0662,0.0664,0.0781,0.0654,0.0656,0.0657,0.0829,0.0833,0.0837,0,0,0,0,0,0,0.0759,0.0756,0.0733,0.0747,0.0746,0.0721,0.0705,0.0699,0.0703,0.0682,0.0675,0.0681,0.0658,0.0661,0.0732,0.0778,0.0657,0.0659,0.0825,0.083,0.0835,0.0993,0,0,0,0,0,0,0.0759,0.0756,0.0756,0.0747,0.0745,0.0786,0.0708,0.0701,0.0713,0.0705,0.069,0.0685,0.0656,0.0729,0.0734,0.0779,0.0661,0.0821,0.0828,0.0833,0.0983,0.1003,0.1019,0,0,0,0,0,0.076,0.079,0.0755,0.0754,0.0742,0.0789,0.0792,0.0762,0.0717,0.0748,0.0747,0.0686,0.077,0.0736,0.074,0.0786,0.0818,0.0826,0.0833,0.0975,0.0999,0.1019,0,0,0,0,0,0,0.0829,0.0784,0.0746,0.0765,0.0781,0.0777,0.0808,0.0781,0.0802,0.0787,0.0752,0.0752,0.0823,0.0798,0.076,0.0855,0.0775,0.0784,0.0882,0.0904,0.0921,0.0932,0.0663,0,0,0,0,0,0.0838,0.0827,0.0813,0.0835,0.0842,0.0824,0.0839,0.0816,0.0831,0.0833,0.0835,0.0835,0.0861,0.0877,0.0895,0.0968,0.0922,0.0994,0.1012,0.1027,0.1041,0.1014,0.1029,0.0861,0.0861,0.0861,0,0,0.0871,0.085,0.0843,0.0847,0.0849,0.0896,0.0826,0.086,0.0905,0.0836,0.0915,0.0907,0.0897,0.0972,0.0998,0.0955,0.1058,0.1036,0.1049,0.1055,0.1023,0.1039,0.1053,0.0866,0.0865,0.0865,0,0,0.0955,0.0916,0.0937,0.0956,0.0965,0.0963,0.0979,0.0989,0.0995,0.1072,0.1028,0.1066,0.1108,0.1117,0.1121,0.1256,0.1155,0.1243,0.1343,0.1318,0.133,0.1341,0.1327,0.1335,0.1248,0.1248,0.1249,0,0.1003,0.1009,0.0967,0.1013,0.1042,0.1001,0.1064,0.1085,0.1123,0.1152,0.1116,0.1188,0.118,0.1262,0.1302,0.1296,0.1257,0.1261,0.1338,0.1348,0.1356,0.1339,0.1345,0.1257,0.1256,0.1255,0.1254,0,0.1093,0.1112,0.1147,0.1164,0.1205,0.1255,0.1271,0.1318,0.1313,0.1322,0.1402,0.1402,0.1435,0.1438,0.1414,0.1478,0.1425,0.1364,0.1279,0.1382,0.1358,0.1362,0.1269,0.1266,0.1263,0.1261,0,0,0.1166,0.1196,0.1206,0.1238,0.1278,0.1325,0.1416,0.1484,0.154,0.1565,0.1646,0.1688,0.1655,0.1659,0.1626,0.161,0.1645,0.1518,0.1512,0.1496,0.159,0.151,0.1505,0.1577,0.1579,0.158,0.1557,0,0.1251,0.134,0.1338,0.1454,0.151,0.1516,0.1608,0.1662,0.1695,0.1773,0.176,0.182,0.1747,0.1763,0.1744,0.1677,0.1659,0.1657,0.1499,0.1496,0.1404,0.1509,0.1392,0.1357,0.1561,0.1561,0.1562,0,0.1337,0.1382,0.1488,0.158,0.1606,0.1674,0.1788,0.1862,0.1943,0.1968,0.2007,0.199,0.2025,0.1918,0.1855,0.1848,0.174,0.1663,0.1658,0.1529,0.1423,0.1283,0.1356,0.1079,0.1567,0.1566,0.1566,0,0.1396,0.1495,0.1573,0.1605,0.1704,0.1766,0.1824,0.1918,0.1992,0.2086,0.2139,0.2153,0.2167,0.2055,0.1916,0.1881,0.1806,0.1732,0.1561,0.1554,0.1398,0.1374,0.1173,0.1662,0.1662,0.1662,0.1662,0,0.1484,0.1551,0.1601,0.1651,0.1761,0.1818,0.1943,0.2007,0.2113,0.221,0.2228,0.2301,0.2191,0.2137,0.198,0.1802,0.1853,0.1606,0.155,0.1453,0.1436,0.1139,0.1024,0.1661,0.1662,0.1662,0.1662,0,0.1532,0.1568,0.1658,0.1752,0.1788,0.1862,0.1991,0.2087,0.2177,0.2307,0.2344,0.2416,0.2375,0.2242,0.2078,0.1886,0.1556,0.1622,0.1529,0.1462,0.104,0.0942,0.0751,0.0653,0.1454,0.1452,0.145,0,0.1556,0.1603,0.1698,0.1751,0.1791,0.1899,0.1987,0.2102,0.2204,0.2371,0.2443,0.2477,0.2517,0.2284,0.1971,0.1709,0.1497,0.1383,0.1295,0.1024,0.0872,0.0826,0.0756,0.1162,0.1158,0.1155,0.1153,0,0.1592,0.1611,0.1676,0.1772,0.1863,0.1974,0.2101,0.2191,0.2338,0.2462,0.2602,0.2656,0.2468,0.2205,0.185,0.161,0.1173,0.1307,0.1038,0.0652,0.0576,0.0452,0.1182,0.1124,0.1127,0.1129,0.1131,0.1132,0.1586,0.1625,0.1697,0.1794,0.19,0.2035,0.2129,0.2277,0.2442,0.2635,0.2686,0.2792,0.2399,0.1935,0.1574,0.084,0.097,0.06,0.0516,0.0506,0.0364,0.1048,0.0911,0.0913,0.0914,0.0915,0.0916,0,0.1565,0.1626,0.1719,0.1837,0.1945,0.2011,0.2201,0.2311,0.2491,0.2678,0.2806,0.2651,0.2119,0.1566,0.0629,0.0117,-0.0023,-0.0135,-0.0263,-0.0284,0.0305,0.0237,-0.0069,-0.0068,-0.0068,-0.0068,-0.0068,-0.0067,0.1562,0.1626,0.1687,0.1845,0.1936,0.2088,0.2193,0.2371,0.2533,0.2707,0.2753,0.2802,0.2263,0.0712,-0.0402,-0.0614,-0.0901,-0.0966,-0.1022,-0.0703,-0.0642,-0.0584,-0.0679,-0.1172,-0.1173,-0.1608,-0.1613,-0.1617]}],[{"header":{"parameterUnit":"m.s-1","parameterCategory":2,"la1":30.2991,"la2":30.254,"lo1":-89.0895,"lo2":-89.0444,"dy":0.0017,"dx":0.0017,"nx":28,"ny":28,"refTime":"2025-07-13T09:00:00:Z","depth":"2","parameterNumber":2,"parameterNumberName":"U-component_of_CURRENTS"},"data":[0,0,0,0,0,0,0,0,0,0,0,0,0,0,0,0,0,0,0,0,0,0,0,0,0,0,0,0,0,0,0,0,0,0,0,0,0,0,0,0,0,0,0,0,0,0,0,0,0,0,0,0,0,0,0,0,0,0,0.3147,0.3146,0,0.299,0.2988,0.2986,0.3071,0.3075,0.308,0.3084,0.3206,0.3205,0.3204,0,0,0,0,0,0,0,0,0,0,0,0,0,0.3006,0.3011,0.3147,0.3145,0.3144,0.299,0.2988,0.2985,0.307,0.3076,0.3081,0.3086,0.3206,0.3205,0.3204,0,0,0,0,0,0,0,0,0,0,0,0,0,0.2979,0.3013,0.3148,0.3169,0.317,0.299,0.2988,0.2985,0.3069,0.3076,0.3082,0.3089,0.3207,0.3205,0.3204,0.3061,0,0,0.32,0.3199,0,0,0,0,0,0,0,0,0.2981,0.2984,0.3168,0.3167,0.3168,0.3059,0.2982,0.3025,0.3067,0.3105,0.3084,0.3092,0.3179,0.318,0.3129,0.3066,0.3072,0.3199,0.3199,0.3198,0.3198,0,0,0,0,0,0,0,0.2983,0.2988,0.3083,0.3165,0.3165,0.301,0.3018,0.2987,0.311,0.3102,0.3108,0.3092,0.3182,0.3129,0.3133,0.3073,0.3199,0.3198,0.3197,0.3197,0.338,0.3385,0,0,0,0,0,0,0.3028,0.2993,0.3088,0.3078,0.3091,0.3009,0.3018,0.3085,0.3104,0.3112,0.3086,0.3097,0.3128,0.3134,0.3138,0.322,0.3198,0.3197,0.3196,0.3374,0.3381,0.3387,0,0,0,0,0,0,0.3027,0.3041,0.3094,0.3027,0.3024,0.3009,0.308,0.3078,0.31,0.3089,0.3104,0.312,0.3134,0.314,0.3236,0.3217,0.3196,0.3195,0.3367,0.3376,0.3384,0.3224,0,0,0,0,0,0,0.3025,0.3043,0.3074,0.3034,0.303,0.3028,0.3074,0.3071,0.3076,0.309,0.3121,0.3134,0.314,0.3239,0.3235,0.3215,0.3194,0.336,0.3371,0.3381,0.3222,0.3226,0.323,0,0,0,0,0,0.3021,0.3022,0.3079,0.3087,0.3089,0.3027,0.301,0.3014,0.3072,0.3063,0.3156,0.3138,0.3307,0.3239,0.3234,0.3213,0.3355,0.3368,0.338,0.3221,0.3225,0.3229,0,0,0,0,0,0,0.2957,0.3029,0.3091,0.3118,0.3105,0.3045,0.3005,0.3034,0.3077,0.3127,0.3162,0.318,0.327,0.33,0.3226,0.333,0.3344,0.3356,0.3225,0.3229,0.3233,0.3248,0.3193,0,0,0,0,0,0.2966,0.3028,0.3039,0.3072,0.3061,0.3051,0.3021,0.3046,0.3077,0.3102,0.3136,0.3223,0.3292,0.3316,0.3375,0.3374,0.3407,0.3394,0.3397,0.3398,0.3428,0.3525,0.3535,0.3429,0.3429,0.3429,0,0,0.297,0.2999,0.3047,0.3065,0.3051,0.3,0.3052,0.3033,0.3024,0.3106,0.3129,0.3224,0.3316,0.3355,0.3396,0.3379,0.3431,0.3415,0.3412,0.3443,0.3539,0.3547,0.3555,0.3438,0.3436,0.3435,0,0,0.2906,0.3021,0.3005,0.2992,0.298,0.2979,0.2999,0.2985,0.3021,0.3053,0.3155,0.3256,0.3313,0.3362,0.3401,0.3466,0.3465,0.3522,0.3493,0.3584,0.359,0.3597,0.3535,0.3538,0.3496,0.3495,0.3495,0,0.2868,0.29,0.2976,0.2909,0.2901,0.2986,0.2933,0.2941,0.2977,0.3024,0.3081,0.3263,0.3302,0.3381,0.3431,0.3449,0.3497,0.3424,0.3574,0.3582,0.3591,0.3528,0.3533,0.3489,0.349,0.3491,0.3491,0,0.2759,0.2787,0.2761,0.2766,0.2762,0.2739,0.2782,0.2825,0.2913,0.2942,0.3085,0.3177,0.3314,0.3326,0.3385,0.3489,0.3491,0.3564,0.3517,0.3589,0.3521,0.3527,0.348,0.3483,0.3485,0.3486,0,0,0.2608,0.2681,0.2655,0.269,0.2703,0.2701,0.272,0.2762,0.2828,0.2904,0.2979,0.3109,0.3239,0.3309,0.34,0.3458,0.3488,0.3552,0.3559,0.3407,0.3618,0.3497,0.3492,0.3613,0.3616,0.3619,0.3494,0,0.2473,0.2411,0.2461,0.2439,0.2437,0.2551,0.257,0.265,0.2758,0.285,0.2987,0.3106,0.3208,0.3307,0.3394,0.3501,0.3528,0.351,0.3649,0.365,0.3468,0.3506,0.3292,0.3161,0.3501,0.3503,0.3504,0,0.2279,0.23,0.2266,0.2393,0.2394,0.2398,0.2544,0.2572,0.2722,0.2819,0.2985,0.3119,0.3239,0.3336,0.3503,0.3513,0.3588,0.3628,0.3625,0.3594,0.355,0.3184,0.3162,0.3516,0.3515,0.3514,0.3513,0,0.2153,0.2151,0.2174,0.219,0.2309,0.2355,0.2431,0.2574,0.2652,0.2824,0.2921,0.3101,0.3226,0.3366,0.3509,0.3537,0.3657,0.3677,0.3601,0.3585,0.3472,0.3442,0.3807,0.3808,0.3808,0.3808,0.3809,0,0.1994,0.2002,0.214,0.2148,0.2208,0.2311,0.2403,0.2508,0.2666,0.2773,0.2939,0.307,0.3281,0.3394,0.3487,0.3552,0.3645,0.3597,0.3582,0.3402,0.337,0.3781,0.378,0.3803,0.3805,0.3805,0.3806,0,0.1868,0.194,0.1978,0.211,0.2159,0.2211,0.2387,0.2462,0.2622,0.277,0.2831,0.3058,0.3208,0.3332,0.3505,0.3506,0.3559,0.3569,0.3263,0.3217,0.3395,0.3389,0.3399,0.3395,0.3391,0.3388,0.3385,0,0.1821,0.1825,0.1945,0.1986,0.2053,0.2163,0.2241,0.2422,0.2516,0.2772,0.2829,0.3025,0.3179,0.3285,0.3319,0.3337,0.3503,0.3118,0.3141,0.3387,0.3371,0.3371,0.337,0.286,0.2853,0.2848,0.2843,0,0.1732,0.177,0.1818,0.1902,0.1982,0.207,0.2207,0.2272,0.2495,0.2636,0.2824,0.2951,0.3088,0.3039,0.3059,0.306,0.3081,0.3002,0.3398,0.3016,0.2876,0.2862,0.2879,0.2794,0.2799,0.2803,0.2805,0.2807,0.1671,0.1684,0.1746,0.1822,0.1902,0.1974,0.202,0.2173,0.2311,0.2466,0.2646,0.2734,0.2779,0.27,0.2663,0.2632,0.2832,0.2717,0.2736,0.276,0.2741,0.2606,0.2458,0.2461,0.2463,0.2465,0.2467,0,0.1599,0.1633,0.1678,0.1752,0.1787,0.1882,0.1991,0.2016,0.214,0.227,0.2385,0.2191,0.2203,0.2297,0.2186,0.2171,0.218,0.21,0.2108,0.2157,0.2201,0.2156,0.1716,0.1714,0.1711,0.1709,0,0,0.156,0.1569,0.1596,0.1626,0.1689,0.1718,0.1759,0.1807,0.1886,0.1862,0.1875,0.1988,0.2181,0.1857,0.1853,0.1788,0.1959,0.1731,0.2337,0.2395,0.2435,0.2564,0.255,0,0,0,0,0]},{"header":{"parameterUnit":"m.s-1","parameterCategory":2,"la1":30.2991,"la2":30.254,"lo1":-89.0895,"lo2":-89.0444,"dy":0.0017,"dx":0.0017,"nx":28,"ny":28,"refTime":"2025-07-13T09:00:00:Z","depth":"2","parameterNumber":3,"parameterNumberName":"V-component_of_CURRENTS"},"data":[0,0,0,0,0,0,0,0,0,0,0,0,0,0,0,0,0,0,0,0,0,0,0,0,0,0,0,0,0,0,0,0,0,0,0,0,0,0,0,0,0,0,0,0,0,0,0,0,0,0,0,0,0,0,0,0,0,0,-0.0438,-0.0441,0,-0.0754,-0.0757,-0.0761,-0.0729,-0.0724,-0.0719,-0.0715,-0.0757,-0.0763,-0.0769,0,0,0,0,0,0,0,0,0,0,0,0,0,-0.0437,-0.0433,-0.0438,-0.0442,-0.0446,-0.0753,-0.0757,-0.0761,-0.073,-0.0724,-0.0718,-0.0712,-0.0756,-0.0762,-0.0769,0,0,0,0,0,0,0,0,0,0,0,0,0,-0.0561,-0.0431,-0.0437,-0.0468,-0.0473,-0.0752,-0.0757,-0.0763,-0.0731,-0.0724,-0.0716,-0.071,-0.0753,-0.0762,-0.077,-0.0968,0,0,-0.0796,-0.08,0,0,0,0,0,0,0,0,-0.0553,-0.056,-0.0459,-0.0466,-0.0473,-0.0695,-0.0773,-0.0818,-0.0733,-0.0632,-0.0715,-0.0706,-0.0717,-0.0729,-0.0807,-0.097,-0.0972,-0.0797,-0.0802,-0.0805,-0.0808,0,0,0,0,0,0,0,-0.0543,-0.055,-0.0562,-0.0464,-0.0473,-0.0682,-0.0685,-0.0786,-0.0706,-0.0641,-0.0639,-0.0678,-0.0718,-0.0799,-0.0806,-0.0973,-0.0796,-0.0804,-0.0809,-0.0813,-0.0859,-0.0855,0,0,0,0,0,0,-0.0481,-0.0539,-0.0552,-0.0571,-0.0497,-0.0685,-0.0689,-0.0631,-0.0711,-0.0719,-0.0684,-0.0676,-0.0788,-0.0797,-0.0807,-0.0795,-0.0805,-0.0813,-0.0818,-0.0863,-0.0858,-0.0854,0,0,0,0,0,0,-0.0478,-0.0475,-0.0539,-0.057,-0.0592,-0.0687,-0.0626,-0.0641,-0.0657,-0.0747,-0.0747,-0.0676,-0.0783,-0.0795,-0.0776,-0.0804,-0.0817,-0.0825,-0.0867,-0.0861,-0.0856,-0.0929,0,0,0,0,0,0,-0.0475,-0.047,-0.0429,-0.0561,-0.0588,-0.0674,-0.0634,-0.0652,-0.0697,-0.0687,-0.0744,-0.0744,-0.0778,-0.0762,-0.0784,-0.0816,-0.0832,-0.0872,-0.0865,-0.0858,-0.0932,-0.0927,-0.0922,0,0,0,0,0,-0.0472,-0.0462,-0.0422,-0.0427,-0.0514,-0.0677,-0.0711,-0.0761,-0.0702,-0.074,-0.0695,-0.0738,-0.0729,-0.0769,-0.0795,-0.0829,-0.0876,-0.0867,-0.0858,-0.0934,-0.0928,-0.0923,0,0,0,0,0,0,-0.0471,-0.0462,-0.042,-0.0406,-0.0508,-0.067,-0.0729,-0.0746,-0.0764,-0.0708,-0.0737,-0.0738,-0.0714,-0.074,-0.0781,-0.0795,-0.0795,-0.0791,-0.0843,-0.0838,-0.0833,-0.0809,-0.0839,0,0,0,0,0,-0.0441,-0.039,-0.0466,-0.0458,-0.0493,-0.0594,-0.0665,-0.0691,-0.0732,-0.0734,-0.0759,-0.0737,-0.0726,-0.0745,-0.0748,-0.082,-0.0819,-0.0828,-0.0824,-0.0821,-0.0802,-0.0786,-0.0781,-0.0826,-0.0826,-0.0826,0,0,-0.0417,-0.0434,-0.0387,-0.0453,-0.0523,-0.061,-0.0615,-0.0706,-0.0752,-0.0739,-0.0765,-0.0732,-0.0721,-0.0745,-0.0741,-0.0769,-0.0811,-0.081,-0.0809,-0.0791,-0.0777,-0.0773,-0.0771,-0.082,-0.0821,-0.0822,0,0,-0.046,-0.0373,-0.038,-0.0448,-0.0551,-0.062,-0.0621,-0.0737,-0.0743,-0.0795,-0.0729,-0.0696,-0.0753,-0.0746,-0.0745,-0.0723,-0.0761,-0.0698,-0.0721,-0.0707,-0.0705,-0.0704,-0.0745,-0.0747,-0.0732,-0.0732,-0.0732,0,-0.0466,-0.0438,-0.0435,-0.0512,-0.055,-0.0598,-0.0657,-0.0726,-0.0812,-0.0798,-0.0777,-0.0753,-0.0763,-0.0756,-0.0714,-0.0732,-0.0715,-0.0774,-0.0711,-0.0709,-0.0707,-0.0748,-0.0749,-0.0734,-0.0734,-0.0734,-0.0734,0,-0.0536,-0.0512,-0.0545,-0.0584,-0.0644,-0.0706,-0.0768,-0.0797,-0.0788,-0.0832,-0.0798,-0.0806,-0.0764,-0.078,-0.0753,-0.0722,-0.0716,-0.0696,-0.0756,-0.0709,-0.0753,-0.0754,-0.0738,-0.0737,-0.0736,-0.0736,0,0,-0.0561,-0.0576,-0.0589,-0.057,-0.0656,-0.071,-0.0757,-0.0813,-0.0789,-0.0859,-0.0838,-0.0835,-0.0781,-0.0763,-0.0738,-0.0756,-0.0756,-0.0707,-0.0705,-0.0801,-0.0739,-0.0742,-0.0743,-0.0712,-0.0711,-0.071,-0.08,0,-0.0626,-0.07,-0.0706,-0.0743,-0.0751,-0.0761,-0.0792,-0.0824,-0.0836,-0.0835,-0.0841,-0.0803,-0.0796,-0.0742,-0.0753,-0.072,-0.0745,-0.0734,-0.072,-0.0721,-0.0773,-0.0739,-0.0695,-0.0768,-0.08,-0.08,-0.08,0,-0.0696,-0.0722,-0.0748,-0.071,-0.0715,-0.0748,-0.0714,-0.0754,-0.0764,-0.0753,-0.0735,-0.0717,-0.0718,-0.0708,-0.0717,-0.0692,-0.0689,-0.0716,-0.0719,-0.0687,-0.072,-0.08,-0.0766,-0.08,-0.08,-0.08,-0.08,0,-0.0669,-0.0732,-0.0716,-0.0717,-0.0724,-0.0704,-0.0706,-0.0708,-0.0674,-0.0678,-0.0633,-0.0657,-0.0617,-0.0646,-0.0686,-0.0664,-0.0724,-0.0715,-0.0747,-0.0751,-0.0693,-0.0691,-0.0709,-0.0709,-0.0709,-0.0709,-0.0708,0,-0.0687,-0.0676,-0.0687,-0.0668,-0.0624,-0.0641,-0.058,-0.0586,-0.0553,-0.0472,-0.0544,-0.0487,-0.0575,-0.0621,-0.0678,-0.0726,-0.0719,-0.0738,-0.0756,-0.0717,-0.0717,-0.0706,-0.0704,-0.0712,-0.0711,-0.0711,-0.071,0,-0.0621,-0.0641,-0.061,-0.0604,-0.0591,-0.0543,-0.0475,-0.0421,-0.0414,-0.0312,-0.0292,-0.0333,-0.0381,-0.0539,-0.0614,-0.0687,-0.0775,-0.0792,-0.0778,-0.0789,-0.082,-0.082,-0.0826,-0.0826,-0.0827,-0.0827,-0.0827,0,-0.058,-0.056,-0.0533,-0.049,-0.0474,-0.0414,-0.035,-0.0333,-0.0259,-0.0195,-0.0125,-0.0171,-0.0138,-0.0356,-0.0549,-0.0729,-0.0753,-0.0806,-0.0746,-0.0806,-0.0824,-0.0823,-0.0822,-0.073,-0.0729,-0.0729,-0.0728,0,-0.0494,-0.0483,-0.0451,-0.0368,-0.0298,-0.0217,-0.0129,-0.0046,0.001,0.0108,0.0214,0.0231,0.0015,-0.0153,-0.0457,-0.0577,-0.0786,-0.0797,-0.0848,-0.0695,-0.0718,-0.0735,-0.0737,-0.0724,-0.0725,-0.0725,-0.0725,-0.0725,-0.0417,-0.0369,-0.0322,-0.0232,-0.0143,-0.0009,0.01,0.0213,0.0379,0.0549,0.0494,0.0547,0.022,-0.0094,-0.0368,-0.0678,-0.0677,-0.076,-0.0761,-0.0761,-0.0722,-0.0742,-0.075,-0.0751,-0.0751,-0.0752,-0.0752,0,-0.0325,-0.0273,-0.0185,-0.0067,0.0072,0.0086,0.0263,0.0405,0.0648,0.0769,0.0879,0.0645,0.0426,0.0063,-0.0365,-0.0627,-0.0644,-0.0706,-0.0673,-0.0677,-0.0681,-0.0635,-0.0642,-0.0642,-0.0642,-0.0642,0,0,-0.0271,-0.0175,-0.0128,0.0105,0.021,0.0414,0.0537,0.0754,0.089,0.1045,0.1072,0.1005,0.055,0.0267,-0.0137,-0.0366,-0.0437,-0.0404,-0.0471,-0.0389,-0.0387,-0.0705,-0.0639,0,0,0,0,0]}],[{"header":{"parameterUnit":"m.s-1","parameterCategory":2,"la1":30.2991,"la2":30.254,"lo1":-89.0895,"lo2":-89.0444,"dy":0.0017,"dx":0.0017,"nx":28,"ny":28,"refTime":"2025-07-13T09:00:00:Z","depth":"4","parameterNumber":2,"parameterNumberName":"U-component_of_CURRENTS"},"data":[0,0,0,0,0,0,0,0,0,0,0,0,0,0,0,0,0,0,0,0,0,0,0,0,0,0,0,0,0,0,0,0,0,0,0,0,0,0,0,0,0,0,0,0,0,0,0,0,0,0,0,0,0,0,0,0,0,0,0.0751,0.0754,0,0.0827,0.0827,0.0826,0.0882,0.0885,0.0887,0.089,0.0897,0.0894,0.0892,0,0,0,0,0,0,0,0,0,0,0,0,0,0.0652,0.0651,0.0751,0.0754,0.0757,0.0828,0.0826,0.0825,0.0882,0.0885,0.0888,0.0891,0.0897,0.0895,0.0892,0,0,0,0,0,0,0,0,0,0,0,0,0,0.0687,0.0651,0.0751,0.081,0.0818,0.0828,0.0826,0.0825,0.0881,0.0885,0.0889,0.0892,0.0898,0.0895,0.0892,0.0796,0,0,0.0882,0.088,0,0,0,0,0,0,0,0,0.0685,0.0687,0.0798,0.0806,0.0815,0.0869,0.0796,0.082,0.088,0.0833,0.089,0.0894,0.0892,0.089,0.0865,0.0796,0.0797,0.0882,0.088,0.0878,0.0877,0,0,0,0,0,0,0,0.0682,0.0685,0.0759,0.0802,0.0812,0.0834,0.084,0.0799,0.0822,0.0838,0.0848,0.089,0.0894,0.0868,0.0866,0.0797,0.0882,0.0879,0.0877,0.0876,0.0989,0.0994,0,0,0,0,0,0,0.0713,0.0682,0.0757,0.0763,0.0783,0.0834,0.084,0.0829,0.0825,0.0835,0.0887,0.0893,0.0872,0.087,0.0867,0.0958,0.0878,0.0875,0.0873,0.0985,0.0991,0.0996,0,0,0,0,0,0,0.0709,0.0716,0.0754,0.0746,0.0755,0.0834,0.082,0.0829,0.0876,0.0867,0.0872,0.0936,0.0875,0.0871,0.0939,0.0952,0.0874,0.0871,0.0979,0.0986,0.0993,0.1009,0,0,0,0,0,0,0.0704,0.0712,0.0727,0.0746,0.0758,0.0805,0.0819,0.0829,0.0903,0.0912,0.0908,0.0909,0.0877,0.0945,0.0936,0.0946,0.0868,0.0972,0.0982,0.0991,0.1002,0.1016,0.1028,0,0,0,0,0,0.0699,0.0734,0.0725,0.0738,0.0768,0.0809,0.0814,0.0869,0.0903,0.0921,0.0967,0.0913,0.0999,0.0946,0.0934,0.0943,0.0968,0.0979,0.099,0.0997,0.1014,0.1028,0,0,0,0,0,0,0.0704,0.0745,0.0736,0.0779,0.0807,0.0828,0.0876,0.0899,0.0939,0.0963,0.0952,0.0956,0.1008,0.1008,0.095,0.1023,0.0982,0.0991,0.0991,0.1006,0.1019,0.1014,0.0866,0,0,0,0,0,0.0706,0.0732,0.0763,0.0793,0.0816,0.0842,0.0876,0.0899,0.0942,0.0965,0.0984,0.1018,0.1027,0.1052,0.1049,0.1078,0.106,0.1097,0.1109,0.1119,0.1121,0.1123,0.1132,0.1033,0.1033,0.1032,0,0,0.0695,0.0746,0.0744,0.0796,0.0816,0.0844,0.0867,0.0927,0.0953,0.0954,0.1022,0.104,0.1049,0.1085,0.1112,0.1098,0.1148,0.1134,0.114,0.1137,0.1135,0.1143,0.1151,0.104,0.1039,0.1038,0,0,0.0703,0.0746,0.0757,0.08,0.0872,0.0888,0.0923,0.0969,0.1001,0.1053,0.1074,0.1133,0.1153,0.1167,0.1171,0.1264,0.1201,0.1285,0.1341,0.1343,0.1348,0.1353,0.1352,0.1356,0.1306,0.1307,0.1307,0,0.0702,0.072,0.077,0.0816,0.0872,0.0918,0.0945,0.0967,0.1037,0.1073,0.1096,0.118,0.1178,0.1226,0.1275,0.1276,0.1281,0.1257,0.1349,0.1353,0.1357,0.1355,0.1359,0.1309,0.1308,0.1308,0.1308,0,0.0703,0.074,0.0775,0.0828,0.0883,0.0933,0.0983,0.1038,0.1095,0.1119,0.1202,0.1228,0.1293,0.1303,0.1307,0.1362,0.1357,0.1337,0.128,0.1366,0.1362,0.1365,0.1312,0.1311,0.131,0.131,0,0,0.0659,0.0745,0.0765,0.0795,0.0908,0.0948,0.1013,0.1076,0.1133,0.1197,0.1271,0.1311,0.1359,0.1376,0.1401,0.1417,0.1444,0.1411,0.141,0.1359,0.1458,0.144,0.1442,0.1438,0.1439,0.1439,0.1443,0,0.0648,0.0707,0.0774,0.0842,0.0874,0.0972,0.1034,0.1105,0.1169,0.1254,0.1301,0.1375,0.1376,0.1432,0.1446,0.1456,0.1457,0.1446,0.1429,0.1429,0.1357,0.1447,0.1442,0.1445,0.1446,0.1447,0.1447,0,0.0631,0.069,0.0736,0.0853,0.0883,0.0937,0.1075,0.1141,0.1253,0.1313,0.1402,0.1446,0.1528,0.1499,0.1535,0.1537,0.1504,0.1487,0.1486,0.1461,0.1418,0.1349,0.1453,0.1453,0.1452,0.1452,0.1451,0,0.0579,0.0675,0.0719,0.0765,0.0892,0.0951,0.1037,0.1157,0.1242,0.1374,0.1453,0.1528,0.1608,0.1585,0.1598,0.157,0.1608,0.155,0.1487,0.1485,0.1481,0.1475,0.1526,0.1526,0.1526,0.1526,0.1526,0,0.0566,0.0607,0.0697,0.0741,0.0822,0.0931,0.1046,0.1141,0.1291,0.1383,0.1499,0.1565,0.1636,0.1676,0.1628,0.1608,0.1634,0.151,0.1492,0.1496,0.1493,0.1483,0.1478,0.1526,0.1526,0.1526,0.1526,0,0.0493,0.0555,0.0617,0.0749,0.0798,0.0866,0.1063,0.1128,0.1302,0.1427,0.1489,0.1636,0.1695,0.1739,0.1724,0.1666,0.1623,0.1587,0.1625,0.1606,0.1477,0.1474,0.15,0.1499,0.1499,0.1499,0.1498,0,0.0451,0.0466,0.0611,0.0649,0.0712,0.0835,0.0911,0.1113,0.1187,0.1429,0.146,0.1614,0.1681,0.1671,0.1703,0.1665,0.1621,0.1602,0.1503,0.1498,0.1478,0.1475,0.1473,0.1498,0.1498,0.1498,0.1498,0,0.0372,0.0428,0.0483,0.0567,0.0645,0.0757,0.0879,0.0934,0.1156,0.1316,0.1421,0.1495,0.1576,0.1605,0.1648,0.1581,0.1627,0.1596,0.1594,0.15,0.1496,0.1475,0.1473,0.1496,0.1496,0.1497,0.1497,0,0.0312,0.0318,0.0396,0.0468,0.0564,0.0651,0.0737,0.0842,0.0978,0.1233,0.1239,0.1399,0.1531,0.1559,0.1556,0.1571,0.1502,0.1423,0.1428,0.143,0.1414,0.1399,0.1367,0,0,0,0,0,0.0255,0.0253,0.0289,0.0386,0.0478,0.0556,0.0702,0.0789,0.0977,0.1016,0.115,0.1213,0.1314,0.1382,0.1374,0.149,0.1486,0.1474,0.1389,0.1489,0.149,0.1484,0,0,0,0,0,0,0.0212,0.0235,0.0255,0.0314,0.0356,0.0473,0.0561,0.0679,0.0726,0.0909,0.0959,0.113,0.1221,0.1294,0.1342,0.1367,0.1289,0.1579,0.1577,0.1488,0.1489,0.1491,0.1484,0,0,0,0,0]},{"header":{"parameterUnit":"m.s-1","parameterCategory":2,"la1":30.2991,"la2":30.254,"lo1":-89.0895,"lo2":-89.0444,"dy":0.0017,"dx":0.0017,"nx":28,"ny":28,"refTime":"2025-07-13T09:00:00:Z","depth":"4","parameterNumber":3,"parameterNumberName":"V-component_of_CURRENTS"},"data":[0,0,0,0,0,0,0,0,0,0,0,0,0,0,0,0,0,0,0,0,0,0,0,0,0,0,0,0,0,0,0,0,0,0,0,0,0,0,0,0,0,0,0,0,0,0,0,0,0,0,0,0,0,0,0,0,0,0,-0.0022,-0.0023,0,-0.0107,-0.0108,-0.0108,-0.0164,-0.0165,-0.0166,-0.0167,-0.023,-0.023,-0.0231,0,0,0,0,0,0,0,0,0,0,0,0,0,-0.0025,-0.0023,-0.0022,-0.0024,-0.0025,-0.0107,-0.0108,-0.0108,-0.0164,-0.0165,-0.0167,-0.0168,-0.023,-0.023,-0.0231,0,0,0,0,0,0,0,0,0,0,0,0,0,-0.0049,-0.0022,-0.0021,-0.007,-0.0076,-0.0107,-0.0108,-0.0108,-0.0164,-0.0165,-0.0167,-0.0169,-0.0229,-0.023,-0.0231,-0.0201,0,0,-0.0234,-0.0234,0,0,0,0,0,0,0,0,-0.0048,-0.0048,-0.0061,-0.0067,-0.0073,-0.0135,-0.0132,-0.0141,-0.0163,-0.0121,-0.0168,-0.017,-0.02,-0.0204,-0.0204,-0.0204,-0.0206,-0.0234,-0.0234,-0.0235,-0.0235,0,0,0,0,0,0,0,-0.0046,-0.0045,-0.0047,-0.0063,-0.0071,-0.0129,-0.0132,-0.0134,-0.0142,-0.0125,-0.0131,-0.0154,-0.0203,-0.0202,-0.0206,-0.0207,-0.0234,-0.0234,-0.0235,-0.0235,-0.0419,-0.0423,0,0,0,0,0,0,-0.0044,-0.0043,-0.0044,-0.005,-0.0075,-0.0127,-0.013,-0.0106,-0.0143,-0.0153,-0.0153,-0.0157,-0.02,-0.0204,-0.0208,-0.0254,-0.0235,-0.0235,-0.0236,-0.0415,-0.042,-0.0425,0,0,0,0,0,0,-0.0043,-0.0041,-0.0041,-0.0059,-0.0064,-0.0125,-0.0097,-0.0107,-0.0138,-0.0166,-0.0174,-0.0179,-0.0202,-0.0207,-0.0263,-0.0254,-0.0236,-0.0237,-0.0409,-0.0416,-0.0422,-0.0295,0,0,0,0,0,0,-0.0042,-0.0039,-0.0031,-0.0057,-0.0063,-0.0064,-0.0097,-0.0108,-0.0152,-0.0158,-0.019,-0.0196,-0.0204,-0.0262,-0.0264,-0.0255,-0.0237,-0.0404,-0.0412,-0.042,-0.0294,-0.0297,-0.0299,0,0,0,0,0,-0.0041,-0.0024,-0.0028,-0.0031,-0.0044,-0.0064,-0.0071,-0.0117,-0.0152,-0.0153,-0.0211,-0.0197,-0.0317,-0.0264,-0.0266,-0.0257,-0.04,-0.041,-0.0419,-0.0293,-0.0296,-0.0299,0,0,0,0,0,0,-0.0034,-0.0029,-0.0035,-0.002,-0.0044,-0.0077,-0.0092,-0.0128,-0.0171,-0.0194,-0.022,-0.023,-0.0278,-0.0319,-0.026,-0.0357,-0.0369,-0.0379,-0.0273,-0.0276,-0.0279,-0.0244,-0.0238,0,0,0,0,0,-0.0023,-0.0001,-0.0018,-0.0012,-0.0015,-0.0056,-0.0078,-0.0112,-0.0155,-0.0176,-0.0201,-0.0266,-0.0315,-0.0336,-0.0378,-0.0405,-0.0433,-0.0427,-0.0429,-0.043,-0.0419,-0.047,-0.0472,-0.0457,-0.0457,-0.0457,0,0,-0.0011,-0.0021,-0.0002,-0.001,-0.0025,-0.0019,-0.007,-0.0105,-0.0111,-0.0175,-0.0192,-0.0257,-0.0332,-0.0369,-0.0398,-0.0398,-0.0456,-0.0443,-0.044,-0.0429,-0.048,-0.048,-0.048,-0.0463,-0.0462,-0.0461,0,0,0.0015,0.0014,0.0048,0.0033,-0.0007,-0.0025,-0.0038,-0.0075,-0.0097,-0.0135,-0.02,-0.027,-0.0326,-0.0372,-0.0406,-0.0462,-0.0465,-0.0503,-0.0464,-0.0513,-0.0511,-0.051,-0.0534,-0.0536,-0.0502,-0.0502,-0.0502,0,0.002,0.0063,0.0045,0.0056,0.0043,-0.0021,-0.0003,-0.0025,-0.0086,-0.0113,-0.0138,-0.0279,-0.032,-0.0386,-0.041,-0.0449,-0.0483,-0.0415,-0.0502,-0.0502,-0.0503,-0.0528,-0.0532,-0.0497,-0.0498,-0.0498,-0.0498,0,0.008,0.0098,0.0106,0.0122,0.0107,0.0099,0.0068,0.0042,-0.0007,-0.0049,-0.0132,-0.021,-0.0299,-0.0335,-0.0371,-0.0425,-0.0447,-0.0482,-0.0456,-0.0494,-0.0522,-0.0528,-0.049,-0.0492,-0.0493,-0.0494,0,0,0.0138,0.0155,0.0157,0.0166,0.0134,0.0126,0.012,0.0092,0.0069,-0.0007,-0.0041,-0.0144,-0.0217,-0.0269,-0.0342,-0.0384,-0.04,-0.0428,-0.0433,-0.0383,-0.0494,-0.0461,-0.0465,-0.0441,-0.0442,-0.0443,-0.0501,0,0.019,0.0235,0.0226,0.0252,0.0271,0.0215,0.022,0.0166,0.0113,0.0067,-0.0048,-0.0113,-0.0183,-0.0232,-0.0285,-0.0385,-0.0415,-0.0381,-0.0526,-0.053,-0.0438,-0.047,-0.0446,-0.0506,-0.0507,-0.0508,-0.0509,0,0.0253,0.0269,0.0321,0.0313,0.032,0.0329,0.0295,0.0278,0.0193,0.0147,0.0046,-0.0048,-0.0147,-0.0191,-0.0346,-0.0323,-0.0393,-0.0459,-0.0464,-0.0477,-0.0508,-0.0478,-0.052,-0.0519,-0.0518,-0.0517,-0.0517,0,0.0296,0.0325,0.0366,0.0366,0.0362,0.037,0.0359,0.0297,0.0276,0.0187,0.015,0.0009,-0.0061,-0.0184,-0.0326,-0.0341,-0.0472,-0.0514,-0.0547,-0.0545,-0.0602,-0.0603,-0.0594,-0.0594,-0.0594,-0.0594,-0.0594,0,0.0338,0.0362,0.0394,0.0414,0.0447,0.0418,0.0427,0.0395,0.0341,0.0308,0.0187,0.0132,-0.0062,-0.0172,-0.0299,-0.0433,-0.0456,-0.0532,-0.0559,-0.0555,-0.055,-0.0604,-0.0605,-0.0596,-0.0596,-0.0595,-0.0595,0,0.0358,0.0385,0.0424,0.0456,0.0471,0.0481,0.0485,0.0479,0.0428,0.0388,0.0359,0.0217,0.0068,-0.0104,-0.0294,-0.0386,-0.0521,-0.0553,-0.0506,-0.0531,-0.0568,-0.0563,-0.0611,-0.0611,-0.061,-0.061,-0.0609,0,0.0365,0.0396,0.0463,0.0488,0.0508,0.0529,0.0549,0.0525,0.0513,0.0433,0.0414,0.0277,0.0166,-0.0069,-0.025,-0.0469,-0.05,-0.0553,-0.0589,-0.0549,-0.0571,-0.0567,-0.0562,-0.0608,-0.0608,-0.0608,-0.0608,0,0.0366,0.0401,0.0439,0.0513,0.0555,0.0588,0.0614,0.0614,0.057,0.0544,0.0452,0.0308,0.0156,-0.0057,-0.0207,-0.0372,-0.0519,-0.0548,-0.0552,-0.0586,-0.0547,-0.0568,-0.0564,-0.0606,-0.0606,-0.0607,-0.0607,0,0.0359,0.0385,0.0456,0.0505,0.0567,0.0613,0.0631,0.0623,0.061,0.053,0.0507,0.0327,0.0224,-0.0005,-0.0154,-0.0302,-0.036,-0.041,-0.0422,-0.0426,-0.036,-0.0281,-0.0275,0,0,0,0,0,0.0342,0.0377,0.0436,0.0496,0.0563,0.0598,0.0652,0.0658,0.0639,0.0589,0.0544,0.04,0.016,0.0047,-0.0098,-0.0163,-0.0389,-0.0336,-0.0453,-0.0596,-0.0598,-0.055,0,0,0,0,0,0,0.0331,0.0389,0.0427,0.0479,0.051,0.0582,0.0616,0.0615,0.0581,0.0546,0.042,0.0363,0.0128,0.0231,-0.0108,-0.0153,-0.0244,-0.0449,-0.0451,-0.0595,-0.0597,-0.0598,-0.055,0,0,0,0,0]}]]